Location: Crystal Bay
(39.2282°N, 120.0042°W)
Time: 17:38:30
(UTC+00:00)

BlueWalker 3 - Visible Passes

Search period start: 14 June 2025 00:00
Search period end: 24 June 2025 00:00
Orbit: 460 x 472 km, 53.2° (Epoch: 13 June)

Date Brightness Start Highest point End Pass type
(mag) Time Alt. Az. Time Alt. Az. Time Alt. Az.
17 Jun 3.6 11:41:41 10° S 11:44:38 23° SE 11:47:33 10° ENE visible
18 Jun 3.9 11:09:55 11° S 11:12:20 18° SE 11:14:55 10° E visible
19 Jun 4.0 10:38:52 13° SSE 10:40:02 15° SE 10:42:08 10° E visible
20 Jun 4.3 10:07:44 12° SE 10:07:44 12° SE 10:09:03 10° ESE visible
20 Jun 1.8 11:41:39 12° SW 11:44:56 74° NW 11:48:35 10° NE visible
21 Jun 1.7 11:10:26 24° SW 11:12:31 88° SE 11:16:11 10° NE visible
22 Jun 1.8 10:39:08 45° SSW 10:40:05 70° SE 10:43:43 10° NE visible
23 Jun 2.1 10:07:47 54° SE 10:07:47 54° SE 10:11:13 10° ENE visible
23 Jun 3.7 11:42:37 10° W 11:45:33 22° NNW 11:48:30 10° NNE visible
